Time,TemperatureF,DewpointF,PressureIn,WindDirection,WindDirectionDegrees,WindSpeedMPH,WindSpeedGustMPH,Humidity,HourlyPrecipIn,Conditions,Clouds,dailyrainin,SoftwareType,DateUTC
2013-03-05 00:10:00,19.4,18.0,29.88,South,190,0.0,0.0,95,0.00,,,0.00,weatherlink.com 1.10,2013-03-05 05:10:00,
2013-03-05 00:25:00,19.3,18.0,29.88,SW,223,0.0,0.0,95,0.00,,,0.00,weatherlink.com 1.10,2013-03-05 05:25:00,
2013-03-05 00:40:00,19.4,18.0,29.89,WSW,238,0.0,0.0,95,0.00,,,0.00,weatherlink.com 1.10,2013-03-05 05:40:00,
2013-03-05 00:55:00,19.4,18.0,29.89,SW,222,0.0,0.0,95,0.00,,,0.00,weatherlink.com 1.10,2013-03-05 05:55:00,
2013-03-05 01:10:00,19.4,18.0,29.90,SW,222,0.0,0.0,95,0.00,,,0.00,weatherlink.com 1.10,2013-03-05 06:10:00,
2013-03-05 01:25:00,19.4,18.0,29.91,SW,222,0.0,0.0,95,0.00,,,0.00,weatherlink.com 1.10,2013-03-05 06:25:00,
2013-03-05 01:40:00,19.4,18.0,29.91,SW,221,0.0,0.0,95,0.00,,,0.00,weatherlink.com 1.10,2013-03-05 06:40:00,
2013-03-05 01:55:00,19.4,18.0,29.91,SW,222,0.0,0.0,95,0.00,,,0.00,weatherlink.com 1.10,2013-03-05 06:55:00,
2013-03-05 02:10:00,19.4,18.0,29.91,SW,222,0.0,0.0,95,0.00,,,0.00,weatherlink.com 1.10,2013-03-05 07:10:00,
2013-03-05 02:25:00,19.4,19.0,29.92,SW,219,0.0,0.0,96,0.00,,,0.00,weatherlink.com 1.10,2013-03-05 07:25:00,
2013-03-05 02:40:00,19.4,19.0,29.92,SW,219,0.0,0.0,96,0.00,,,0.00,weatherlink.com 1.10,2013-03-05 07:40:00,
2013-03-05 02:55:00,19.5,19.0,29.92,SW,219,0.0,0.0,96,0.00,,,0.00,weatherlink.com 1.10,2013-03-05 07:55:00,
2013-03-05 03:10:00,19.5,18.0,29.93,SW,219,0.0,0.0,95,0.00,,,0.00,weatherlink.com 1.10,2013-03-05 08:10:00,
2013-03-05 03:25:00,19.6,18.0,29.94,SW,220,0.0,0.0,95,0.00,,,0.00,weatherlink.com 1.10,2013-03-05 08:25:00,
2013-03-05 03:40:00,19.6,18.0,29.94,SW,219,0.0,0.0,95,0.00,,,0.00,weatherlink.com 1.10,2013-03-05 08:40:00,
2013-03-05 03:55:00,19.7,19.0,29.95,SW,219,0.0,0.0,95,0.00,,,0.00,weatherlink.com 1.10,2013-03-05 08:55:00,
2013-03-05 04:10:00,19.7,19.0,29.95,SW,219,0.0,0.0,95,0.00,,,0.00,weatherlink.com 1.10,2013-03-05 09:10:00,
2013-03-05 04:25:00,19.8,19.0,29.97,SW,219,0.0,0.0,95,0.00,,,0.00,weatherlink.com 1.10,2013-03-05 09:25:00,
2013-03-05 04:40:00,19.9,19.0,29.97,SW,219,0.0,0.0,95,0.00,,,0.00,weatherlink.com 1.10,2013-03-05 09:40:00,
2013-03-05 04:55:00,19.9,19.0,29.97,SW,219,0.0,0.0,95,0.00,,,0.00,weatherlink.com 1.10,2013-03-05 09:55:00,
2013-03-05 05:10:00,20.0,19.0,29.98,SW,219,0.0,0.0,95,0.00,,,0.00,weatherlink.com 1.10,2013-03-05 10:10:00,
2013-03-05 05:26:00,20.1,19.0,29.99,SW,219,0.0,0.0,95,0.00,,,0.00,weatherlink.com 1.10,2013-03-05 10:26:00,
2013-03-05 05:41:00,20.2,19.0,29.99,SW,219,0.0,0.0,95,0.00,,,0.00,weatherlink.com 1.10,2013-03-05 10:41:00,
2013-03-05 05:56:00,20.2,19.0,30.00,SW,220,0.0,0.0,95,0.00,,,0.00,weatherlink.com 1.10,2013-03-05 10:56:00,
2013-03-05 06:11:00,20.4,19.0,30.00,SW,219,0.0,0.0,95,0.00,,,0.00,weatherlink.com 1.10,2013-03-05 11:11:00,
2013-03-05 06:26:00,20.6,19.0,30.00,SW,219,0.0,0.0,95,0.00,,,0.00,weatherlink.com 1.10,2013-03-05 11:26:00,
2013-03-05 06:41:00,20.9,20.0,30.01,SW,219,0.0,0.0,95,0.00,,,0.00,weatherlink.com 1.10,2013-03-05 11:41:00,
2013-03-05 06:56:00,21.1,20.0,30.02,SW,219,0.0,0.0,95,0.00,,,0.00,weatherlink.com 1.10,2013-03-05 11:56:00,
2013-03-05 07:11:00,21.3,20.0,30.02,SW,219,0.0,0.0,95,0.00,,,0.00,weatherlink.com 1.10,2013-03-05 12:11:00,
2013-03-05 07:26:00,21.7,21.0,30.03,SW,219,0.0,0.0,95,0.00,,,0.00,weatherlink.com 1.10,2013-03-05 12:26:00,
2013-03-05 07:41:00,22.1,21.0,30.04,SW,219,0.0,0.0,95,0.00,,,0.00,weatherlink.com 1.10,2013-03-05 12:41:00,
2013-03-05 07:56:00,22.5,21.0,30.04,SW,219,0.0,0.0,94,0.00,,,0.00,weatherlink.com 1.10,2013-03-05 12:56:00,
2013-03-05 08:11:00,22.7,21.0,30.04,SW,219,0.0,0.0,93,0.00,,,0.00,weatherlink.com 1.10,2013-03-05 13:11:00,
2013-03-05 08:26:00,23.3,22.0,30.05,NE,53,0.0,0.0,93,0.00,,,0.00,weatherlink.com 1.10,2013-03-05 13:26:00,
2013-03-05 08:41:00,23.2,22.0,30.05,ENE,70,0.0,0.0,93,0.00,,,0.00,weatherlink.com 1.10,2013-03-05 13:41:00,
2013-03-05 08:56:00,23.8,22.0,30.06,NE,49,0.0,0.0,93,0.00,,,0.00,weatherlink.com 1.10,2013-03-05 13:56:00,
2013-03-05 09:11:00,25.0,23.0,30.05,ESE,118,0.0,0.0,92,0.00,,,0.00,weatherlink.com 1.10,2013-03-05 14:11:00,
2013-03-05 09:26:00,26.5,23.0,30.05,ENE,67,0.0,0.0,88,0.00,,,0.00,weatherlink.com 1.10,2013-03-05 14:26:00,
2013-03-05 09:41:00,26.8,24.0,30.06,WNW,297,0.0,0.0,88,0.00,,,0.00,weatherlink.com 1.10,2013-03-05 14:41:00,
2013-03-05 09:56:00,27.0,24.0,30.05,SE,145,0.0,0.0,87,0.00,,,0.00,weatherlink.com 1.10,2013-03-05 14:56:00,
2013-03-05 10:11:00,27.5,24.0,30.06,ESE,121,0.0,0.0,86,0.00,,,0.00,weatherlink.com 1.10,2013-03-05 15:11:00,
2013-03-05 10:26:00,27.7,24.0,30.06,NW,305,0.0,0.0,87,0.00,,,0.00,weatherlink.com 1.10,2013-03-05 15:26:00,
2013-03-05 10:41:00,28.2,25.0,30.05,ENE,72,0.0,0.0,86,0.00,,,0.00,weatherlink.com 1.10,2013-03-05 15:41:00,
2013-03-05 10:56:00,28.0,24.0,30.06,SSE,152,0.0,0.0,86,0.00,,,0.00,weatherlink.com 1.10,2013-03-05 15:56:00,
2013-03-05 11:11:00,28.4,25.0,30.07,WSW,257,0.0,0.0,86,0.00,,,0.00,weatherlink.com 1.10,2013-03-05 16:11:00,
2013-03-05 11:26:00,28.8,25.0,30.07,ESE,118,0.0,0.0,86,0.00,,,0.00,weatherlink.com 1.10,2013-03-05 16:26:00,
2013-03-05 11:41:00,29.8,26.0,30.06,ENE,74,0.0,0.0,84,0.00,,,0.00,weatherlink.com 1.10,2013-03-05 16:41:00,
2013-03-05 11:56:00,30.3,26.0,30.06,NE,49,0.0,0.0,84,0.00,,,0.00,weatherlink.com 1.10,2013-03-05 16:56:00,
2013-03-05 12:12:00,31.7,27.0,30.06,ESE,105,0.0,0.0,82,0.00,,,0.00,weatherlink.com 1.10,2013-03-05 17:12:00,
2013-03-05 12:27:00,32.2,27.0,30.06,ENE,71,0.0,0.0,82,0.00,,,0.00,weatherlink.com 1.10,2013-03-05 17:27:00,
2013-03-05 12:42:00,32.6,27.0,30.06,SSW,199,0.0,0.0,81,0.00,,,0.00,weatherlink.com 1.10,2013-03-05 17:42:00,
2013-03-05 12:57:00,33.5,28.0,30.06,SSW,203,0.0,0.0,81,0.00,,,0.00,weatherlink.com 1.10,2013-03-05 17:57:00,
2013-03-05 13:12:00,33.5,28.0,30.06,East,86,0.0,0.0,79,0.00,,,0.00,weatherlink.com 1.10,2013-03-05 18:12:00,
2013-03-05 13:27:00,33.6,28.0,30.06,SW,233,0.0,0.0,79,0.00,,,0.00,weatherlink.com 1.10,2013-03-05 18:27:00,
2013-03-05 13:42:00,33.6,28.0,30.07,SSE,149,0.0,0.0,79,0.00,,,0.00,weatherlink.com 1.10,2013-03-05 18:42:00,
2013-03-05 13:57:00,34.0,28.0,30.07,SW,217,0.0,0.0,80,0.00,,,0.00,weatherlink.com 1.10,2013-03-05 18:57:00,
2013-03-05 14:12:00,34.3,28.0,30.07,SW,219,0.0,0.0,79,0.00,,,0.00,weatherlink.com 1.10,2013-03-05 19:12:00,
2013-03-05 14:27:00,35.1,29.0,30.07,WSW,252,0.0,0.0,78,0.00,,,0.00,weatherlink.com 1.10,2013-03-05 19:27:00,
2013-03-05 14:42:00,35.6,29.0,30.07,SW,217,0.0,0.0,78,0.00,,,0.00,weatherlink.com 1.10,2013-03-05 19:42:00,
2013-03-05 14:57:00,35.4,30.0,30.07,SW,229,0.0,0.0,80,0.01,,,0.01,weatherlink.com 1.10,2013-03-05 19:57:00,
2013-03-05 15:12:00,35.8,30.0,30.08,WSW,252,0.0,0.0,79,0.01,,,0.01,weatherlink.com 1.10,2013-03-05 20:12:00,
2013-03-05 15:27:00,35.6,29.0,30.08,SSW,205,0.0,0.0,78,0.01,,,0.01,weatherlink.com 1.10,2013-03-05 20:27:00,
2013-03-05 15:57:00,35.5,30.0,30.09,SE,141,0.0,0.0,79,0.01,,,0.02,weatherlink.com 1.10,2013-03-05 20:57:00,
2013-03-05 16:12:00,35.5,30.0,30.09,SE,133,0.0,0.0,80,0.01,,,0.02,weatherlink.com 1.10,2013-03-05 21:12:00,
2013-03-05 16:27:00,35.4,31.0,30.09,SE,126,0.0,1.0,85,0.01,,,0.02,weatherlink.com 1.10,2013-03-05 21:27:00,
2013-03-05 16:42:00,34.8,31.0,30.09,SE,125,0.0,0.0,86,0.01,,,0.03,weatherlink.com 1.10,2013-03-05 21:42:00,
2013-03-05 16:57:00,34.4,31.0,30.10,SE,125,0.0,0.0,87,0.01,,,0.03,weatherlink.com 1.10,2013-03-05 21:57:00,
2013-03-05 17:12:00,34.1,31.0,30.10,WSW,252,0.0,0.0,89,0.01,,,0.03,weatherlink.com 1.10,2013-03-05 22:12:00,
2013-03-05 17:27:00,33.2,31.0,30.10,WSW,252,0.0,0.0,91,0.01,,,0.03,weatherlink.com 1.10,2013-03-05 22:27:00,
2013-03-05 17:42:00,32.9,31.0,30.10,WSW,252,0.0,0.0,92,0.00,,,0.03,weatherlink.com 1.10,2013-03-05 22:42:00,
2013-03-05 17:57:00,32.7,31.0,30.11,NE,44,0.0,1.0,92,0.00,,,0.03,weatherlink.com 1.10,2013-03-05 22:57:00,
2013-03-05 18:12:00,32.4,30.0,30.11,NE,44,0.0,1.0,92,0.00,,,0.03,weatherlink.com 1.10,2013-03-05 23:12:00,
2013-03-05 18:27:00,32.2,30.0,30.11,ENE,74,0.0,1.0,91,0.00,,,0.03,weatherlink.com 1.10,2013-03-05 23:27:00,
2013-03-05 18:42:00,31.8,29.0,30.11,ENE,74,0.0,1.0,90,0.00,,,0.03,weatherlink.com 1.10,2013-03-05 23:42:00,
2013-03-05 18:57:00,30.9,29.0,30.11,NNE,26,1.0,1.0,91,0.00,,,0.03,weatherlink.com 1.10,2013-03-05 23:57:00,
2013-03-05 19:12:00,30.4,28.0,30.12,ENE,67,1.0,3.0,91,0.00,,,0.03,weatherlink.com 1.10,2013-03-06 00:12:00,
2013-03-05 19:27:00,31.0,29.0,30.12,East,82,0.0,2.0,91,0.00,,,0.03,weatherlink.com 1.10,2013-03-06 00:27:00,
2013-03-05 19:42:00,31.0,29.0,30.12,East,94,0.0,1.0,92,0.00,,,0.03,weatherlink.com 1.10,2013-03-06 00:42:00,
2013-03-05 19:57:00,31.3,29.0,30.12,ENE,65,0.0,2.0,92,0.00,,,0.03,weatherlink.com 1.10,2013-03-06 00:57:00,
2013-03-05 20:12:00,31.5,30.0,30.12,ENE,69,0.0,1.0,93,0.00,,,0.03,weatherlink.com 1.10,2013-03-06 01:12:00,
2013-03-05 20:27:00,31.3,30.0,30.11,East,91,0.0,2.0,93,0.00,,,0.03,weatherlink.com 1.10,2013-03-06 01:27:00,
2013-03-05 20:42:00,31.2,29.0,30.11,ENE,71,1.0,1.0,93,0.00,,,0.03,weatherlink.com 1.10,2013-03-06 01:42:00,
2013-03-05 20:57:00,30.6,29.0,30.10,ENE,71,0.0,2.0,93,0.00,,,0.03,weatherlink.com 1.10,2013-03-06 01:57:00,
2013-03-05 21:12:00,30.2,29.0,30.11,ENE,71,0.0,0.0,94,0.00,,,0.03,weatherlink.com 1.10,2013-03-06 02:12:00,
2013-03-05 21:27:00,30.0,29.0,30.11,ENE,71,0.0,1.0,95,0.00,,,0.03,weatherlink.com 1.10,2013-03-06 02:27:00,
2013-03-05 21:42:00,30.0,29.0,30.11,ENE,71,0.0,0.0,96,0.00,,,0.03,weatherlink.com 1.10,2013-03-06 02:42:00,
2013-03-05 21:57:00,29.9,29.0,30.11,ENE,71,0.0,0.0,96,0.00,,,0.03,weatherlink.com 1.10,2013-03-06 02:57:00,
2013-03-05 22:12:00,30.4,29.0,30.11,ENE,58,0.0,1.0,96,0.00,,,0.03,weatherlink.com 1.10,2013-03-06 03:12:00,
2013-03-05 22:27:00,30.9,30.0,30.11,ENE,67,0.0,2.0,95,0.00,,,0.03,weatherlink.com 1.10,2013-03-06 03:27:00,
2013-03-05 22:42:00,30.2,29.0,30.11,ENE,67,0.0,1.0,95,0.00,,,0.03,weatherlink.com 1.10,2013-03-06 03:42:00,
2013-03-05 22:57:00,30.2,29.0,30.11,WNW,299,0.0,1.0,96,0.00,,,0.03,weatherlink.com 1.10,2013-03-06 03:57:00,
2013-03-05 23:12:00,30.2,29.0,30.11,NE,46,0.0,1.0,96,0.00,,,0.03,weatherlink.com 1.10,2013-03-06 04:12:00,
2013-03-05 23:27:00,31.0,30.0,30.12,ENE,70,2.0,3.0,97,0.00,,,0.03,weatherlink.com 1.10,2013-03-06 04:27:00,
2013-03-05 23:42:00,31.3,30.0,30.12,ESE,121,0.0,1.0,96,0.00,,,0.03,weatherlink.com 1.10,2013-03-06 04:42:00,
2013-03-05 23:57:00,31.4,30.0,30.12,SW,223,1.0,1.0,96,0.00,,,0.03,weatherlink.com 1.10,2013-03-06 04:57:00,